Flag for Germany Weather past 2 weeks in Öhringen, Baden-Württemberg, Germany

Now
52 °F

Clear.


Feels Like: 52 °F
Forecast: 44 / 66 °F
Wind: 1 mph from South

Location: Oehringen

Current Time: Sep 4, 2015 at 4:37:42 AM

Latest Report: Sep 4, 2015 at 4:00 AM


Visibility: 25 mi

Pressure: 30.01 "Hg

Humidity: 83%

Dew point: 47 °F

Location of ÖhringenLocation

Historic Weather in Öhringen — Graph

°F

Öhringen temperature yesterday

Maximum temperature yesterday: 69 °F (at 4:00 PM)
Minimum temperature yesterday: 57 °F (at 7:00 AM)
Average temperature yesterday: 62 °F

Past Weeks' High & Low Weather Summary

 TemperatureHumidityPressure
High93 °F (Aug 31, 6:00 PM)99% (Aug 21, 8:00 AM)30.29 "Hg (Aug 21, 8:00 AM)
Low51 °F (Aug 26, 7:00 AM)27% (Aug 22, 2:00 PM)29.68 "Hg (Aug 24, 3:00 PM)
Average69 °F66%30.00 "Hg
* Reported Aug 20 3:00 AM — Sep 4 3:00 AM, Öhringen, Weather by CustomWeather, © 2015

Note: Actual official high and low records may vary slightly from our data, if they occured in-between our weather recording intervals... More about our weather records

Advertising

Öhringen weather history for previous 24 hours

 ConditionsComfort  
Time TempWeatherWind HumidityBarometerVisibility
3:00 AM
Fri, Sep 4
53 °FClear.1 mph80%30.02 "Hg28 mi
2:00 AM54 °FPassing clouds.1 mph77%30.01 "Hg31 mi
1:00 AM57 °FPassing clouds.2 mph70%30.00 "Hg43 mi
11:00 PM
Thu, Sep 3
61 °FOvercast.3 mph61%29.97 "Hg43 mi
10:00 PM62 °FClear.2 mph59%29.97 "Hg43 mi
9:00 PM64 °FOvercast.2 mph52%29.95 "Hg43 mi
8:00 PM66 °FOvercast.3 mph47%29.93 "Hg43 mi
7:00 PM67 °FOvercast.3 mph43%29.92 "Hg43 mi
6:00 PM68 °FOvercast.5 mph43%29.93 "Hg43 mi
5:00 PM68 °FOvercast.3 mph44%29.92 "Hg43 mi
4:00 PM69 °FOvercast.3 mph41%29.92 "Hg43 mi
3:00 PM67 °FOvercast.3 mph45%29.93 "Hg37 mi
2:00 PM67 °FOvercast.5 mph52%29.95 "Hg28 mi
1:00 PM65 °FOvercast.2 mph64%29.95 "Hg16 mi
12:00 PM63 °FPartly sunny.2 mph78%29.96 "Hg8 mi
11:00 AM60 °FFog.2 mph91%29.98 "Hg4 mi
10:00 AM59 °FLow clouds.2 mph91%29.97 "Hg5 mi
9:00 AM58 °FOvercast.1 mph94%29.97 "Hg3 mi
8:00 AM57 °FLight rain. Overcast.1 mph96%29.96 "Hg2 mi
7:00 AM57 °FLight rain. Fog.1 mph96%29.96 "Hg2 mi
5:00 AM57 °FLight rain. Overcast.1 mph95%29.96 "Hg3 mi
4:00 AM57 °FOvercast.1 mph91%29.96 "Hg7 mi
Weather by CustomWeather, © 2015

See weather overviewHow to use our weather pages